Overview Statistics Trail Chart Weather Telemetry Raw packets
 

This is the latest recevied weather packets stored in our database for station/object N8BAP. If no packets are shown the sender has not sent any weather packets the latest 10 day(s).

<< 109 110 111 112 113 114 >>
Time Temp. Humidity Pressure Rain* Wind** Luminosity Snow
1787794089 21.11° C 81% 1019.7 hPa 0 mm - 0 W/m² -
1787793786 21.11° C 80% 1019.8 hPa 0 mm - 0 W/m² -
1787793486 21.11° C 80% 1019.7 hPa 0 mm - 0 W/m² -
1787793181 21.67° C 79% 1019.7 hPa 0 mm - 0 W/m² -
1787792876 21.67° C 78% 1020 hPa 0 mm - 0 W/m² -
1787792571 21.67° C 78% 1019.8 hPa 0 mm - 0 W/m² -
1787792268 21.67° C 77% 1019.8 hPa 0 mm - 0 W/m² -
1787791966 21.67° C 77% 1019.8 hPa 0 mm - 0 W/m² -
1787791660 21.67° C 77% 1019.5 hPa 0 mm - 0 W/m² -
1787791357 21.67° C 76% 1019.7 hPa 0 mm - 0 W/m² -
1787791051 21.67° C 77% 1019.9 hPa 0 mm - 0 W/m² -
1787790748 21.67° C 76% 1019.7 hPa 0 mm - 0 W/m² -
1787790441 21.67° C 76% 1019.7 hPa 0 mm - 0 W/m² -
1787790137 22.22° C 76% 1019.6 hPa 0 mm - 0 W/m² -
1787789833 22.22° C 75% 1019.9 hPa 0 mm - 0 W/m² -
1787789532 22.22° C 74% 1019.9 hPa 0 mm - 1 W/m² -
1787789231 22.78° C 73% 1019.8 hPa 0 mm - 2 W/m² -
1787788926 22.78° C 73% 1019.7 hPa 0 mm - 4 W/m² -
1787788624 23.33° C 72% 1019.6 hPa 0 mm - 7 W/m² -
1787788318 23.89° C 71% 1019.9 hPa 0 mm - 9 W/m² -
1787788014 23.89° C 69% 1019.7 hPa 0 mm - 10 W/m² -
1787787714 24.44° C 68% 1019.6 hPa 0 mm - 12 W/m² -
1787787413 25° C 66% 1019.7 hPa 0 mm - 16 W/m² -
1787787113 25.56° C 64% 1019.8 hPa 0 mm - 20 W/m² -
1787786807 26.11° C 65% 1019.6 hPa 0 mm - 30 W/m² -

* Rain latest hour (hover to see other rain measurements)
** Current wind speed in m/s (hover to see current wind gust speed)